Year,Month,Day,Hour,Minute,Value (Times are PST for temperature in C)
2017,05,21,10,03,19.10
2017,05,21,10,04,19.10
2017,05,21,10,05,19.10
2017,05,21,10,06,19.10
2017,05,21,10,07,19.10
2017,05,21,10,08,19.10
2017,05,21,10,09,19.10
2017,05,21,10,10,19.10
2017,05,21,10,11,19.20
2017,05,21,10,12,19.30
2017,05,21,10,13,19.40
2017,05,21,10,14,19.40
2017,05,21,10,15,19.50
2017,05,21,10,16,19.50
2017,05,21,10,17,19.60
2017,05,21,10,18,19.60
2017,05,21,10,19,19.50
2017,05,21,10,20,19.40
2017,05,21,10,21,19.30
2017,05,21,10,22,19.10
2017,05,21,10,23,18.90
2017,05,21,10,24,18.70
2017,05,21,10,25,18.70
2017,05,21,10,26,18.70
2017,05,21,10,27,18.70
2017,05,21,10,28,18.80
2017,05,21,10,29,18.80
2017,05,21,10,30,18.70
2017,05,21,10,31,18.70
2017,05,21,10,32,18.70
2017,05,21,10,33,18.70
2017,05,21,10,34,18.70
2017,05,21,10,35,18.70
2017,05,21,10,36,18.70
2017,05,21,10,37,18.60
2017,05,21,10,38,18.60
2017,05,21,10,39,18.60
2017,05,21,10,40,18.60
2017,05,21,10,41,18.60
2017,05,21,10,42,18.60
2017,05,21,10,43,18.50
2017,05,21,10,44,18.50
2017,05,21,10,45,18.50
2017,05,21,10,46,18.50
2017,05,21,10,47,18.40
2017,05,21,10,48,18.20
2017,05,21,10,49,18.10
2017,05,21,10,50,18.10
2017,05,21,10,51,18.20
2017,05,21,10,52,18.20
2017,05,21,10,53,18.20
2017,05,21,10,54,18.20
2017,05,21,10,55,18.20
2017,05,21,10,56,18.20
2017,05,21,10,57,18.20
2017,05,21,10,58,18.30
2017,05,21,10,59,18.40
2017,05,21,11,00,18.50
2017,05,21,11,01,18.70
2017,05,21,11,02,19.00
2017,05,21,11,03,19.10
2017,05,21,11,04,19.30
2017,05,21,11,05,19.40
2017,05,21,11,06,19.40
2017,05,21,11,07,19.40
2017,05,21,11,08,19.40
2017,05,21,11,09,19.30
2017,05,21,11,10,19.40
2017,05,21,11,11,19.40
2017,05,21,11,12,19.40
2017,05,21,11,13,19.50
2017,05,21,11,14,19.40
2017,05,21,11,15,19.40
2017,05,21,11,16,19.40
2017,05,21,11,17,19.50
2017,05,21,11,18,19.50
2017,05,21,11,19,19.60
2017,05,21,11,20,19.60
2017,05,21,11,21,19.70
2017,05,21,11,22,19.80
2017,05,21,11,23,19.90
2017,05,21,11,24,19.90
2017,05,21,11,25,20.10
2017,05,21,11,26,20.10
2017,05,21,11,27,20.20
2017,05,21,11,28,20.20
2017,05,21,11,29,20.40
2017,05,21,11,30,20.50
2017,05,21,11,31,20.50
2017,05,21,11,32,20.50
2017,05,21,11,33,20.40
2017,05,21,11,34,20.40
2017,05,21,11,35,20.20
2017,05,21,11,36,20.20
2017,05,21,11,37,20.20
2017,05,21,11,38,20.20
2017,05,21,11,39,20.20
2017,05,21,11,40,20.30
2017,05,21,11,41,20.20
2017,05,21,11,42,20.20
2017,05,21,11,43,20.20
2017,05,21,11,44,20.20
2017,05,21,11,45,20.10
2017,05,21,11,46,20.10
2017,05,21,11,47,19.90
2017,05,21,11,48,19.90
2017,05,21,11,49,19.90
2017,05,21,11,50,19.80
2017,05,21,11,51,19.80
2017,05,21,11,52,19.80
2017,05,21,11,53,19.70
2017,05,21,11,54,19.70
2017,05,21,11,55,19.80
2017,05,21,11,56,19.90
2017,05,21,11,57,20.10
2017,05,21,11,58,20.20
2017,05,21,11,59,20.40
2017,05,21,12,00,20.50
2017,05,21,12,01,20.70
2017,05,21,12,02,20.90
2017,05,21,12,03,21.00
2017,05,21,12,04,21.20
2017,05,21,12,05,21.30
2017,05,21,12,06,21.30
2017,05,21,12,07,21.30
2017,05,21,12,08,21.40
2017,05,21,12,09,21.40
2017,05,21,12,10,21.30
2017,05,21,12,11,21.20
2017,05,21,12,12,21.20
2017,05,21,12,13,21.30
2017,05,21,12,14,21.30
2017,05,21,12,15,21.30
2017,05,21,12,16,21.30
2017,05,21,12,17,21.30
2017,05,21,12,18,21.30
2017,05,21,12,19,21.20
2017,05,21,12,20,21.30
2017,05,21,12,21,21.20
2017,05,21,12,22,21.10
2017,05,21,12,23,21.10
2017,05,21,12,24,21.20
2017,05,21,12,25,21.30
2017,05,21,12,26,21.40
2017,05,21,12,27,21.40
2017,05,21,12,28,21.50
2017,05,21,12,29,21.30
2017,05,21,12,30,21.30
2017,05,21,12,31,21.30
2017,05,21,12,32,21.30
2017,05,21,12,33,21.30
2017,05,21,12,34,21.20
2017,05,21,12,35,21.10
2017,05,21,12,36,21.10
2017,05,21,12,37,21.20
2017,05,21,12,38,21.30
2017,05,21,12,39,21.50
2017,05,21,12,40,21.60
2017,05,21,12,41,21.60
2017,05,21,12,42,21.50
2017,05,21,12,43,21.40
2017,05,21,12,44,21.40
2017,05,21,12,45,21.50
2017,05,21,12,46,21.60
2017,05,21,12,47,21.70
2017,05,21,12,48,21.70
2017,05,21,12,49,21.70
2017,05,21,12,50,21.60
2017,05,21,12,51,21.60
2017,05,21,12,52,21.60
2017,05,21,12,53,21.60
2017,05,21,12,54,21.40
2017,05,21,12,55,21.40
2017,05,21,12,56,21.40
2017,05,21,12,57,21.30
2017,05,21,12,58,21.20
2017,05,21,12,59,21.20
2017,05,21,13,00,21.30
2017,05,21,13,01,21.50
2017,05,21,13,02,21.80
2017,05,21,13,03,21.90
2017,05,21,13,04,21.90
2017,05,21,13,05,21.90
2017,05,21,13,06,21.90
2017,05,21,13,07,21.80
2017,05,21,13,08,21.70
2017,05,21,13,09,21.70
2017,05,21,13,10,21.80
2017,05,21,13,11,21.90
2017,05,21,13,12,22.00
2017,05,21,13,13,22.10
2017,05,21,13,14,22.30
2017,05,21,13,15,22.50
2017,05,21,13,16,22.60
2017,05,21,13,17,22.70
2017,05,21,13,18,22.50
2017,05,21,13,19,22.20
2017,05,21,13,20,22.10
2017,05,21,13,21,22.00
2017,05,21,13,22,22.00
2017,05,21,13,23,21.90
2017,05,21,13,24,21.90
2017,05,21,13,25,21.90
2017,05,21,13,26,21.80
2017,05,21,13,27,21.60
2017,05,21,13,28,21.60
2017,05,21,13,29,21.60
2017,05,21,13,30,21.60
2017,05,21,13,31,21.40
2017,05,21,13,32,21.30
2017,05,21,13,33,21.30
2017,05,21,13,34,21.20
2017,05,21,13,35,21.20
2017,05,21,13,36,21.00
2017,05,21,13,37,21.00
2017,05,21,13,38,20.90
2017,05,21,13,39,20.80
2017,05,21,13,40,20.80
2017,05,21,13,41,20.70
2017,05,21,13,42,20.80
2017,05,21,13,43,20.80
2017,05,21,13,44,21.00
2017,05,21,13,45,21.10
2017,05,21,13,46,20.90
2017,05,21,13,47,20.80
2017,05,21,13,48,20.80
2017,05,21,13,49,20.90
2017,05,21,13,50,20.90
2017,05,21,13,51,20.90
2017,05,21,13,52,20.90
2017,05,21,13,53,20.90
2017,05,21,13,54,20.90
2017,05,21,13,55,20.90
2017,05,21,13,56,20.90
2017,05,21,13,57,21.00
2017,05,21,13,58,21.10
2017,05,21,13,59,21.30
2017,05,21,14,00,21.40
2017,05,21,14,01,21.60
2017,05,21,14,02,21.80
2017,05,21,14,03,22.00
2017,05,21,14,04,22.00
2017,05,21,14,05,21.90
2017,05,21,14,06,21.60
2017,05,21,14,07,21.40
2017,05,21,14,08,21.30
2017,05,21,14,09,21.30
2017,05,21,14,10,21.30
2017,05,21,14,11,21.30
2017,05,21,14,12,21.10
2017,05,21,14,13,21.10
2017,05,21,14,14,21.10
2017,05,21,14,15,21.00
2017,05,21,14,16,21.00
2017,05,21,14,17,21.00
2017,05,21,14,18,21.00
2017,05,21,14,19,20.90
2017,05,21,14,20,20.90
2017,05,21,14,21,20.80
2017,05,21,14,22,20.80
2017,05,21,14,23,20.80
2017,05,21,14,24,20.70
2017,05,21,14,25,20.70
2017,05,21,14,26,20.70
2017,05,21,14,27,20.70
2017,05,21,14,28,20.70
2017,05,21,14,29,20.70
2017,05,21,14,30,20.80
2017,05,21,14,31,20.80
2017,05,21,14,32,20.80
2017,05,21,14,33,20.70
2017,05,21,14,34,20.70
2017,05,21,14,35,20.70
2017,05,21,14,36,20.70
2017,05,21,14,37,20.80
2017,05,21,14,38,20.80
2017,05,21,14,39,20.80
2017,05,21,14,40,20.80
2017,05,21,14,41,20.90
2017,05,21,14,42,20.80
2017,05,21,14,43,20.90
2017,05,21,14,44,20.90
2017,05,21,14,45,21.00
2017,05,21,14,46,21.10
2017,05,21,14,47,21.20
2017,05,21,14,48,21.20
2017,05,21,14,49,21.20
2017,05,21,14,50,21.30
2017,05,21,14,51,21.20
2017,05,21,14,52,21.20
2017,05,21,14,53,21.10
2017,05,21,14,54,21.10
2017,05,21,14,55,21.10
2017,05,21,14,56,21.10
2017,05,21,14,57,21.20
2017,05,21,14,58,21.20
2017,05,21,14,59,21.30
2017,05,21,15,00,21.40
2017,05,21,15,01,21.60
2017,05,21,15,02,21.60
2017,05,21,15,03,21.60
2017,05,21,15,04,21.60
2017,05,21,15,05,21.60
2017,05,21,15,06,21.60
2017,05,21,15,07,21.60
2017,05,21,15,08,21.60
2017,05,21,15,09,21.60
2017,05,21,15,10,21.60
2017,05,21,15,11,21.60
2017,05,21,15,12,21.70
2017,05,21,15,13,21.70
2017,05,21,15,14,21.70
2017,05,21,15,15,21.70
2017,05,21,15,16,21.80
2017,05,21,15,17,21.80
2017,05,21,15,18,21.90
2017,05,21,15,19,22.00
2017,05,21,15,20,22.00
2017,05,21,15,21,22.00
2017,05,21,15,22,22.00
2017,05,21,15,23,21.90
2017,05,21,15,24,21.80
2017,05,21,15,25,21.80
2017,05,21,15,26,21.80
2017,05,21,15,27,21.80
2017,05,21,15,28,21.70
2017,05,21,15,29,21.70
2017,05,21,15,30,21.60
2017,05,21,15,31,21.60
2017,05,21,15,32,21.60
2017,05,21,15,33,21.60
2017,05,21,15,34,21.60
2017,05,21,15,35,21.60
2017,05,21,15,36,21.70
2017,05,21,15,37,21.80
2017,05,21,15,38,21.90
2017,05,21,15,39,21.90
2017,05,21,15,40,21.80
2017,05,21,15,41,21.70
2017,05,21,15,42,21.60
2017,05,21,15,43,21.60
2017,05,21,15,44,21.60
2017,05,21,15,45,21.70
2017,05,21,15,46,21.70
2017,05,21,15,47,21.60
2017,05,21,15,48,21.70
2017,05,21,15,49,21.80
2017,05,21,15,50,21.90
2017,05,21,15,51,22.00
2017,05,21,15,52,22.00
2017,05,21,15,53,22.10
2017,05,21,15,54,22.20
2017,05,21,15,55,22.30
2017,05,21,15,56,22.40
2017,05,21,15,57,22.50
2017,05,21,15,58,22.50
2017,05,21,15,59,22.50
2017,05,21,16,00,22.50
2017,05,21,16,01,22.50
2017,05,21,16,02,22.50
2017,05,21,16,03,22.60
2017,05,21,16,04,22.60
2017,05,21,16,05,22.70
2017,05,21,16,06,22.60
2017,05,21,16,07,22.40
2017,05,21,16,08,22.20
2017,05,21,16,09,22.20
2017,05,21,16,10,22.20
2017,05,21,16,11,22.10
2017,05,21,16,12,22.00
2017,05,21,16,13,21.90
2017,05,21,16,14,21.90
2017,05,21,16,15,21.70
2017,05,21,16,16,21.60
2017,05,21,16,17,21.60
2017,05,21,16,18,21.60
2017,05,21,16,19,21.70
2017,05,21,16,20,21.90
2017,05,21,16,21,21.90
2017,05,21,16,22,22.00
2017,05,21,16,23,22.00
2017,05,21,16,24,22.00
2017,05,21,16,25,21.90
2017,05,21,16,26,21.90
2017,05,21,16,27,21.90
2017,05,21,16,28,21.90
2017,05,21,16,29,22.00
2017,05,21,16,30,22.00
2017,05,21,16,31,22.20
2017,05,21,16,32,22.30
2017,05,21,16,33,22.40
2017,05,21,16,34,22.50
2017,05,21,16,35,22.50
2017,05,21,16,36,22.60
2017,05,21,16,37,22.70
2017,05,21,16,38,22.90
2017,05,21,16,39,22.90
2017,05,21,16,40,23.00
2017,05,21,16,41,23.10
2017,05,21,16,42,23.00
2017,05,21,16,43,22.90
2017,05,21,16,44,22.70
2017,05,21,16,45,22.60
2017,05,21,16,46,22.60
2017,05,21,16,47,22.50
2017,05,21,16,48,22.50
2017,05,21,16,49,22.50
2017,05,21,16,50,22.50
2017,05,21,16,51,22.60
2017,05,21,16,52,22.60
2017,05,21,16,53,22.60
2017,05,21,16,54,22.70
2017,05,21,16,55,22.80
2017,05,21,16,56,22.80
2017,05,21,16,57,22.80
2017,05,21,16,58,22.90
2017,05,21,16,59,22.90
2017,05,21,17,00,22.90
2017,05,21,17,01,22.90
2017,05,21,17,02,22.90
2017,05,21,17,03,22.90
2017,05,21,17,04,22.90
2017,05,21,17,05,22.80
2017,05,21,17,06,22.80
2017,05,21,17,07,22.80
2017,05,21,17,08,22.70
2017,05,21,17,09,22.70
2017,05,21,17,10,22.70
2017,05,21,17,11,22.70
2017,05,21,17,12,22.80
2017,05,21,17,13,22.80
2017,05,21,17,14,22.90
2017,05,21,17,15,22.90
2017,05,21,17,16,22.90
2017,05,21,17,17,22.90
2017,05,21,17,18,23.00
2017,05,21,17,19,22.90
2017,05,21,17,20,22.90
2017,05,21,17,21,22.90
2017,05,21,17,22,22.90
2017,05,21,17,23,22.90
2017,05,21,17,24,22.90
2017,05,21,17,25,22.90
2017,05,21,17,26,22.90
2017,05,21,17,27,22.90
2017,05,21,17,28,22.90
2017,05,21,17,29,22.90
2017,05,21,17,30,22.90
2017,05,21,17,31,23.00
2017,05,21,17,32,23.10
2017,05,21,17,33,23.20
2017,05,21,17,34,23.20
2017,05,21,17,35,23.20
2017,05,21,17,36,23.20
2017,05,21,17,37,23.30
2017,05,21,17,38,23.30
2017,05,21,17,39,23.10
2017,05,21,17,40,23.10
2017,05,21,17,41,23.00
2017,05,21,17,42,22.90
2017,05,21,17,43,22.90
2017,05,21,17,44,22.80
2017,05,21,17,45,22.70
2017,05,21,17,46,22.60
2017,05,21,17,47,22.50
2017,05,21,17,48,22.50
2017,05,21,17,49,22.50
2017,05,21,17,50,22.60
2017,05,21,17,51,22.70
2017,05,21,17,52,22.70
2017,05,21,17,53,22.70
2017,05,21,17,54,22.70
2017,05,21,17,55,22.70
2017,05,21,17,56,22.70
2017,05,21,17,57,22.70
2017,05,21,17,58,22.60
2017,05,21,17,59,22.60
2017,05,21,18,00,22.60
2017,05,21,18,01,22.60
2017,05,21,18,02,22.60
2017,05,21,18,03,22.50
2017,05,21,18,04,22.50
2017,05,21,18,05,22.50
2017,05,21,18,06,22.50
2017,05,21,18,07,22.50
2017,05,21,18,08,22.60
2017,05,21,18,09,22.70
2017,05,21,18,10,22.70
2017,05,21,18,11,22.80
2017,05,21,18,12,22.80
2017,05,21,18,13,22.80
2017,05,21,18,14,22.80
2017,05,21,18,15,22.80
2017,05,21,18,16,22.90
2017,05,21,18,17,22.90
2017,05,21,18,18,22.90
2017,05,21,18,19,22.90
2017,05,21,18,20,22.90
2017,05,21,18,21,22.90
2017,05,21,18,22,22.90
2017,05,21,18,23,22.90
2017,05,21,18,24,22.90
2017,05,21,18,25,22.90
2017,05,21,18,26,22.90
2017,05,21,18,27,22.80
2017,05,21,18,28,22.70
2017,05,21,18,29,22.70
2017,05,21,18,30,22.60
2017,05,21,18,31,22.50
2017,05,21,18,32,22.50
2017,05,21,18,33,22.50
2017,05,21,18,34,22.50
2017,05,21,18,35,22.50
2017,05,21,18,36,22.50
2017,05,21,18,37,22.50
2017,05,21,18,38,22.50
2017,05,21,18,39,22.40
2017,05,21,18,40,22.40
2017,05,21,18,41,22.40
2017,05,21,18,42,22.40
2017,05,21,18,43,22.50
2017,05,21,18,44,22.40
2017,05,21,18,45,22.40
2017,05,21,18,46,22.40
2017,05,21,18,47,22.40
2017,05,21,18,48,22.40
2017,05,21,18,49,22.40
2017,05,21,18,50,22.40
2017,05,21,18,51,22.40
2017,05,21,18,52,22.30
2017,05,21,18,53,22.30
2017,05,21,18,54,22.30
2017,05,21,18,55,22.20
2017,05,21,18,56,22.20
2017,05,21,18,57,22.10
2017,05,21,18,58,22.10
2017,05,21,18,59,22.00
2017,05,21,19,00,22.00
2017,05,21,19,01,21.90
2017,05,21,19,02,21.90
2017,05,21,19,03,21.90
2017,05,21,19,04,21.80
2017,05,21,19,05,21.80
2017,05,21,19,06,21.80
2017,05,21,19,07,21.80
2017,05,21,19,08,21.80
2017,05,21,19,09,21.70
2017,05,21,19,10,21.70
2017,05,21,19,11,21.70
2017,05,21,19,12,21.70
2017,05,21,19,13,21.70
2017,05,21,19,14,21.60
2017,05,21,19,15,21.60
2017,05,21,19,16,21.60
2017,05,21,19,17,21.70
2017,05,21,19,18,21.70
2017,05,21,19,19,21.80
2017,05,21,19,20,21.90
2017,05,21,19,21,22.00
2017,05,21,19,22,22.10
2017,05,21,19,23,22.20
2017,05,21,19,24,22.20
2017,05,21,19,25,22.20
2017,05,21,19,26,22.10
2017,05,21,19,27,22.10
2017,05,21,19,28,22.10
2017,05,21,19,29,22.00
2017,05,21,19,30,22.00
2017,05,21,19,31,22.10
2017,05,21,19,32,22.10
2017,05,21,19,33,22.10
2017,05,21,19,34,22.20
2017,05,21,19,35,22.20
2017,05,21,19,36,22.30
2017,05,21,19,37,22.30
2017,05,21,19,38,22.30
2017,05,21,19,39,22.30
2017,05,21,19,40,22.30
2017,05,21,19,41,22.30
2017,05,21,19,42,22.30
2017,05,21,19,43,22.30
2017,05,21,19,44,22.30
2017,05,21,19,45,22.30
2017,05,21,19,46,22.30
2017,05,21,19,47,22.30
